sat.trackr.live / text

‹ back to catalog

PIAST-S2

NORAD 66757 · 2025-276CV

PAYLOAD ACTIVE UNKNOWN

§ Identity

Operator
Country
POL
Launch date
2025-11-28
Launch site
AFWTR
Launch vehicle
Mass (kg)
RCS (m²)

External: N2YO · Heavens-Above · Gunter

§ Orbital elements

Epoch: 2026-09-20T21:47:34.053792Z

Period
94.65 min
Inclination
97.4135°
Eccentricity
0.0001638
Mean motion
15.21358400 rev/d
Perigee alt
500.6 km
Apogee alt
502.9 km
Semi-major
6,879.9 km
B*
1.4668e-4
RAAN
336.2309°
Arg perigee
36.5777°
Mean anomaly
323.5571°
Rev number
4,498

§ Raw data

PIAST-S21 66757U 25276CV  26263.90803303  .00003217  00000+0  14668-3 0  99982 66757  97.4135 336.2309 0001638  36.5777 323.5571 15.21358400 44981

JSON: /api/v1/satellites/66757 · /tle

For live sub-satellite position, see the globe view (requires WebGL).

§ Visibility from observer

Set your observer location to see the next 7 days of passes ≥ 10°. The values pass through the URL so the page stays shareable.

No JS? Fill the form by hand. The geolocation button needs JavaScript.